1483617600.28,5303,7.25,71576.0,-19.37,-26.03,-25.71,0,*5F
1483617601.49,5304,7.25,71592.0,-19.37,-26.23,-26.07,0,*58
1483617602.79,5305,7.25,71602.0,-19.35,-26.17,-26.17,0,*5D
1483617604.06,5306,7.25,71606.5,-19.35,-26.49,-26.17,0,*55
1483617605.29,5307,7.25,71602.3,-19.37,-26.71,-26.49,0,*56
1483617606.56,5308,7.25,71596.5,-19.35,-26.93,-26.49,0,*57
1483617607.83,5309,7.25,71608.8,-19.35,-26.71,-26.39,0,*5D
1483617609.1,5310,7.25,71602.8,-19.35,-27.03,-26.77,0,*5B
1483617610.37,5311,7.25,71594.8,-19.37,-26.77,-26.55,0,*5A
1483617611.63,5312,7.25,71600.5,-19.37,-26.93,-26.71,0,*55
1483617612.9,5313,7.25,71606.0,-19.35,-26.55,-26.23,0,*5B
1483617614.17,5314,7.31,71610.8,-19.35,-26.39,-26.17,0,*51
1483617615.41,5315,7.31,71622.3,-19.37,-26.33,-26.07,0,*59
1483617616.66,5316,7.25,71618.8,-19.37,-26.17,-25.91,0,*50
1483617617.93,5317,7.31,71618.0,-19.35,-25.91,-25.75,0,*54
1483617619.17,5318,7.31,71618.3,-19.37,-25.91,-25.75,0,*59
1483617620.45,5319,7.25,71622.3,-19.35,-25.71,-25.39,0,*5C
1483617621.69,5320,7.25,71612.3,-19.35,-25.61,-25.39,0,*57
1483617622.94,5321,7.31,71614.5,-19.37,-25.91,-25.55,0,*51
1483617624.19,5322,7.25,71610.0,-19.35,-26.03,-25.87,0,*57
1483617625.49,5323,7.25,71618.0,-19.35,-25.75,-25.71,0,*5D
1483617626.78,5324,7.25,71616.0,-19.35,-25.71,-25.45,0,*59
1483617628.08,5325,7.25,71618.5,-19.35,-25.75,-25.45,0,*5C
1483617629.29,5326,7.25,71620.3,-19.33,-25.35,-25.19,0,*54
1483617630.54,5327,7.25,71616.0,-19.33,-25.45,-25.23,0,*5B
1483617631.81,5328,7.31,71616.5,-19.33,-25.75,-25.45,0,*57
1483617633.09,5329,7.31,71626.8,-19.33,-25.75,-25.55,0,*57
1483617634.33,5330,7.25,71624.3,-19.33,-25.75,-25.35,0,*59
1483617635.59,5331,7.25,71620.8,-19.33,-25.71,-25.39,0,*50
1483617636.87,5332,7.25,71620.0,-19.33,-25.75,-25.71,0,*5B
1483617638.12,5333,7.25,71620.3,-19.33,-26.17,-26.23,0,*59
1483617639.38,5334,7.25,71606.8,-19.31,-26.45,-26.13,0,*58
1483617640.61,5335,7.31,71616.0,-19.33,-27.03,-26.61,0,*5D
1483617641.88,5336,7.25,71610.0,-19.31,-26.49,-26.29,0,*5F
1483617643.14,5337,7.25,71616.3,-19.31,-26.45,-26.17,0,*5F
1483617644.41,5338,7.31,71616.5,-19.33,-26.55,-26.17,0,*53
1483617645.7,5339,7.25,71612.3,-19.31,-26.97,-26.55,0,*58
1483617646.98,5340,7.25,71616.0,-19.33,-26.77,-26.33,0,*5A
1483617648.25,5341,7.25,71620.5,-19.31,-26.49,-26.13,0,*56
1483617649.49,5342,7.25,71612.0,-19.31,-26.49,-26.45,0,*56
1483617650.73,5343,7.25,71598.0,-19.31,-27.13,-26.65,0,*5B
1483617651.98,5344,7.25,71608.0,-19.33,-26.33,-26.03,0,*5D
1483617653.21,5345,7.25,71602.0,-19.33,-26.23,-26.03,0,*5D
1483617654.47,5346,7.25,71616.8,-19.31,-26.17,-25.87,0,*54
1483617655.72,5347,7.25,71608.8,-19.33,-26.29,-26.07,0,*51
1483617656.94,5348,7.25,71614.8,-19.33,-26.23,-26.03,0,*50
1483617658.24,5349,7.25,71612.8,-19.31,-26.13,-25.71,0,*56
1483617659.47,5350,7.25,71610.8,-19.33,-26.49,-26.39,0,*5C
1483617660.77,5351,7.25,71590.3,-19.31,-26.97,-26.29,0,*5D
1483617662.01,5352,7.25,71592.3,-19.33,-26.55,-26.23,0,*58
1483617663.26,5353,7.25,71606.3,-19.33,-26.39,-26.17,0,*54
1483617664.51,5354,7.25,71592.8,-19.33,-27.07,-26.93,0,*53
1483617665.78,5355,7.25,71606.8,-19.35,-27.03,-26.77,0,*5A
1483617667.05,5356,7.25,71610.8,-19.35,-26.93,-26.61,0,*56
1483617668.29,5357,7.25,71610.8,-19.37,-27.07,-26.71,0,*58
1483617669.52,5358,7.25,71608.3,-19.37,-26.71,-26.23,0,*50
1483617670.8,5359,7.25,71596.8,-19.35,-26.33,-25.87,0,*58
1483617672.07,5360,7.31,71596.8,-19.35,-26.49,-26.17,0,*55
1483617673.34,5361,7.25,71592.5,-19.35,-26.39,-26.17,0,*53
1483617674.58,5362,7.25,71590.0,-19.35,-26.61,-26.23,0,*5A
1483617675.84,5363,7.25,71584.5,-19.35,-26.71,-26.23,0,*5A
1483617677.08,5364,7.25,71580.5,-19.35,-27.03,-26.49,0,*55
1483617678.35,5365,7.25,71588.5,-19.35,-27.03,-26.33,0,*59
1483617679.57,5366,7.31,71602.8,-19.37,-26.87,-26.39,0,*5F
1483617680.83,5367,7.25,71602.0,-19.35,-26.71,-26.23,0,*5E
1483617682.08,5368,7.25,71606.0,-19.35,-26.61,-26.07,0,*56
1483617683.32,5369,7.25,71598.8,-19.35,-26.39,-26.03,0,*5E
1483617684.62,5370,7.25,71610.8,-19.35,-26.71,-26.33,0,*59
1483617685.89,5371,7.25,71606.3,-19.33,-27.23,-26.93,0,*52
1483617687.16,5372,7.31,71608.8,-19.35,-26.87,-26.33,0,*52
1483617688.39,5373,7.25,71612.8,-19.35,-26.23,-25.91,0,*56
1483617689.64,5374,7.25,71622.8,-19.37,-25.87,-25.71,0,*50
1483617690.91,5375,7.25,71628.5,-19.35,-25.61,-25.55,0,*5D
1483617692.22,5376,7.25,71616.3,-19.35,-26.33,-25.75,0,*58
1483617693.51,5377,7.25,71604.5,-19.35,-25.71,-25.45,0,*5F
1483617694.76,5378,7.25,71634.8,-19.35,-26.03,-25.91,0,*5F
1483617696.04,5379,7.25,71608.3,-19.35,-26.33,-26.07,0,*51
1483617697.3,5380,7.25,71604.8,-19.35,-26.71,-26.23,0,*57
1483617698.58,5381,7.25,71612.8,-19.35,-26.93,-26.39,0,*51
1483617699.85,5382,7.31,71614.3,-19.35,-26.77,-26.23,0,*53
1483617701.1,5383,7.25,71618.0,-19.37,-26.77,-26.39,0,*5B
1483617702.36,5384,7.25,71616.8,-19.35,-26.93,-26.49,0,*53
1483617703.6,5385,7.25,71620.0,-19.35,-27.03,-26.49,0,*5A
1483617704.87,5386,7.25,71624.0,-19.35,-26.77,-26.23,0,*57
1483617706.15,5387,7.25,71622.5,-19.37,-26.93,-26.33,0,*5F
1483617707.38,5388,7.25,71624.8,-19.37,-26.71,-26.23,0,*5D
1483617708.66,5389,7.25,71620.0,-19.35,-26.33,-25.87,0,*55
1483617709.88,5390,7.25,71620.5,-19.33,-26.61,-26.07,0,*57
1483617711.18,5391,7.25,71610.8,-19.35,-26.33,-25.75,0,*51
1483617712.46,5392,7.25,71610.8,-19.35,-26.33,-25.87,0,*5F
1483617713.75,5393,7.31,71616.8,-19.35,-26.71,-26.17,0,*52
1483617714.99,5394,7.25,71616.0,-19.35,-26.49,-25.91,0,*53
1483617716.21,5395,7.25,71616.5,-19.33,-26.61,-26.07,0,*52
1483617717.48,5396,7.25,71624.8,-19.33,-26.71,-26.17,0,*51
1483617718.73,5397,7.25,71620.8,-19.33,-26.71,-26.07,0,*51
1483617719.98,5398,7.25,71624.0,-19.31,-26.49,-26.03,0,*53
1483617721.26,5399,7.25,71616.5,-19.31,-26.71,-26.17,0,*5C
1483617722.49,5400,7.25,71614.0,-19.33,-26.49,-25.91,0,*5F
1483617723.73,5401,7.25,71614.8,-19.33,-26.61,-26.17,0,*59
1483617724.96,5402,7.25,71608.3,-19.33,-26.49,-26.03,0,*55
1483617726.19,5403,7.25,71602.0,-19.33,-26.61,-26.07,0,*5A
1483617727.44,5404,7.25,71596.8,-19.33,-27.07,-26.55,0,*5B
1483617728.69,5405,7.25,71598.3,-19.33,-26.77,-26.23,0,*5D
1483617729.98,5406,7.25,71596.5,-19.31,-26.55,-25.97,0,*50
1483617731.23,5407,7.31,71604.0,-19.33,-26.49,-26.13,0,*51
1483617732.47,5408,7.31,71602.0,-19.31,-27.03,-26.45,0,*50
1483617733.76,5409,7.31,71604.3,-19.31,-26.97,-26.17,0,*5A
1483617735.01,5410,7.25,71606.8,-19.33,-26.87,-26.33,0,*57
1483617736.26,5411,7.25,71604.3,-19.33,-26.77,-26.23,0,*58
1483617737.52,5412,7.25,71606.8,-19.31,-26.87,-26.33,0,*57
1483617738.77,5413,7.25,71608.8,-19.33,-27.03,-26.33,0,*59
1483617740.04,5414,7.31,71608.8,-19.31,-26.87,-26.29,0,*5A
1483617741.3,5415,7.25,71610.5,-19.31,-26.87,-26.17,0,*56
1483617742.57,5416,7.25,71606.3,-19.31,-26.97,-26.45,0,*53
1483617743.78,5417,7.25,71610.5,-19.33,-27.03,-26.49,0,*50
1483617745.0,5418,7.25,71610.3,-19.33,-26.87,-26.23,0,*5E
1483617746.25,5419,7.25,71614.5,-19.31,-26.65,-26.03,0,*53
1483617747.55,5420,7.31,71614.5,-19.31,-26.29,-25.71,0,*57
1483617748.8,5421,7.25,71618.5,-19.31,-26.03,-25.49,0,*55
1483617750.07,5422,7.25,71608.8,-19.31,-26.17,-25.65,0,*5D
1483617751.34,5423,7.31,71612.5,-19.31,-26.13,-25.49,0,*56
1483617752.6,5424,7.25,71610.8,-19.31,-26.03,-25.49,0,*50
1483617753.87,5425,7.25,71614.8,-19.31,-26.03,-25.55,0,*5C
1483617755.17,5426,7.25,71616.0,-19.31,-26.13,-25.55,0,*5E
1483617756.41,5427,7.25,71614.5,-19.29,-26.29,-25.65,0,*5C
1483617757.66,5428,7.25,71612.0,-19.29,-26.45,-25.55,0,*5A
1483617758.93,5429,7.25,71626.5,-19.29,-26.29,-25.55,0,*51
1483617760.21,5430,7.31,71620.0,-19.29,-26.33,-25.71,0,*54
1483617761.47,5431,7.25,71614.8,-19.29,-26.55,-25.81,0,*5A
1483617762.69,5432,7.25,71616.0,-19.29,-26.45,-25.87,0,*5E
1483617763.95,5433,7.25,71604.8,-19.29,-26.71,-26.13,0,*56
1483617765.2,5434,7.25,71608.8,-19.25,-26.45,-25.97,0,*55
1483617766.44,5435,7.25,71608.0,-19.29,-26.45,-25.81,0,*5F
1483617767.69,5436,7.25,71604.5,-19.25,-26.61,-25.97,0,*51
1483617768.93,5437,7.25,71604.3,-19.29,-26.65,-26.13,0,*57
1483617770.16,5438,7.25,71610.5,-19.25,-26.65,-26.07,0,*51
1483617771.43,5439,7.25,71586.8,-19.29,-26.97,-26.17,0,*50
1483617772.67,5440,7.25,71586.3,-19.25,-26.81,-26.23,0,*52
1483617773.92,5441,7.25,71570.0,-19.29,-27.03,-26.33,0,*55
1483617775.14,5442,7.25,71574.3,-19.25,-27.07,-26.45,0,*5F
1483617776.37,5443,7.25,71580.0,-19.31,-27.03,-26.45,0,*5F
1483617777.67,5444,7.25,71584.5,-19.31,-26.81,-26.29,0,*59
1483617778.97,5445,7.25,71580.8,-19.31,-26.81,-26.29,0,*58
1483617780.18,5446,7.25,71602.8,-19.29,-27.13,-26.65,0,*50
1483617781.43,5447,7.25,71598.0,-19.29,-26.97,-26.45,0,*5E
1483617782.66,5448,7.25,71590.5,-19.31,-26.87,-26.45,0,*59
1483617783.95,5449,7.25,71598.5,-19.31,-27.45,-26.81,0,*5F
1483617785.22,5450,7.25,71584.8,-19.31,-26.87,-26.33,0,*51
1483617786.5,5451,7.25,71608.5,-19.31,-26.71,-26.17,0,*5F
1483617787.79,5452,7.25,71614.3,-19.31,-26.71,-26.13,0,*58
1483617789.02,5453,7.25,71614.8,-19.33,-26.39,-26.03,0,*56
1483617790.3,5454,7.25,71612.0,-19.33,-26.33,-26.17,0,*5E
1483617791.56,5455,7.25,71608.0,-19.31,-26.29,-25.87,0,*5C
1483617792.86,5456,7.25,71612.8,-19.31,-25.97,-25.55,0,*56
1483617794.09,5457,7.25,71612.5,-19.33,-26.03,-25.65,0,*58
1483617795.36,5458,7.25,71610.5,-19.31,-26.33,-25.87,0,*5A
1483617796.66,5459,7.25,71618.8,-19.31,-26.13,-25.55,0,*56
1483617797.95,5460,7.25,71616.3,-19.31,-26.13,-25.71,0,*5A
1483617799.21,5461,7.25,71624.3,-19.31,-26.03,-25.65,0,*5F
1483617800.42,5462,7.25,71626.0,-19.33,-26.23,-25.87,0,*50
1483617801.72,5463,7.25,71624.8,-19.31,-26.17,-25.71,0,*5D
1483617802.99,5464,7.31,71632.8,-19.29,-26.29,-25.81,0,*51
1483617804.23,5465,7.25,71628.3,-19.29,-26.13,-25.65,0,*53
1483617805.44,5466,7.25,71640.5,-19.25,-26.23,-25.91,0,*54
1483617806.68,5467,7.25,71650.8,-19.29,-26.49,-26.13,0,*5C
1483617807.95,5468,7.25,71644.3,-19.29,-26.55,-26.13,0,*5E
1483617809.19,5469,7.31,71626.5,-19.29,-26.71,-26.03,0,*58
1483617810.43,5470,7.25,71624.5,-19.29,-26.29,-25.87,0,*52
1483617811.69,5471,7.25,71630.0,-19.29,-26.33,-26.03,0,*57
1483617812.96,5472,7.25,71628.0,-19.29,-26.97,-26.33,0,*59
1483617814.19,5473,7.25,71632.5,-19.29,-26.65,-26.03,0,*56
1483617815.43,5474,7.25,71632.8,-19.29,-26.87,-26.13,0,*5C
1483617816.72,5475,7.25,71634.5,-19.31,-26.81,-26.17,0,*56
1483617817.96,5476,7.25,71612.5,-19.31,-26.49,-25.87,0,*5B
1483617819.24,5477,7.25,71614.3,-19.29,-26.81,-26.29,0,*50
1483617820.51,5478,7.25,71626.5,-19.29,-26.97,-26.29,0,*58
1483617821.76,5479,7.25,71630.3,-19.29,-26.71,-26.03,0,*59
1483617823.02,5480,7.31,71632.5,-19.29,-26.71,-26.13,0,*5E
1483617824.27,5481,7.25,71620.0,-19.29,-26.65,-25.97,0,*55
1483617825.51,5482,7.25,71618.5,-19.29,-26.87,-26.13,0,*55
1483617826.76,5483,7.31,71626.5,-19.29,-26.65,-26.13,0,*58
1483617828.0,5484,7.25,71620.8,-19.29,-26.87,-26.13,0,*53
1483617829.21,5485,7.25,71620.3,-19.29,-26.45,-25.87,0,*52
1483617830.45,5486,7.25,71622.8,-19.29,-26.55,-25.87,0,*50
1483617831.67,5487,7.25,71634.3,-19.25,-26.23,-25.65,0,*50
1483617832.92,5488,7.25,71626.5,-19.29,-26.33,-25.65,0,*52
1483617834.19,5489,7.31,71620.0,-19.29,-26.13,-25.55,0,*52
1483617835.46,5490,7.25,71596.5,-19.29,-26.55,-26.13,0,*59
1483617836.72,5491,7.25,71598.5,-19.29,-26.55,-26.13,0,*58
1483617837.96,5492,7.25,71608.8,-19.29,-26.45,-26.13,0,*5A
1483617839.25,5493,7.25,71598.5,-19.31,-26.71,-26.17,0,*51
1483617840.49,5494,7.25,71596.5,-19.31,-26.45,-26.03,0,*54
1483617841.74,5495,7.25,71614.0,-19.33,-26.49,-26.17,0,*5E
1483617842.98,5496,7.25,71618.3,-19.33,-26.87,-26.55,0,*59
1483617844.23,5497,7.25,71616.0,-19.33,-27.35,-26.87,0,*5F
1483617845.49,5498,7.31,71616.5,-19.31,-26.45,-26.29,0,*50
1483617846.71,5499,7.25,71620.0,-19.33,-27.03,-26.23,0,*5A
1483617847.98,5500,7.25,71612.5,-19.31,-27.29,-26.71,0,*56
1483617849.2,5501,7.25,71610.3,-19.33,-26.61,-26.23,0,*5F
1483617850.44,5502,7.25,71616.5,-19.33,-26.71,-26.23,0,*5D
1483617851.74,5503,7.25,71624.0,-19.31,-26.81,-26.17,0,*56
1483617852.99,5504,7.25,71618.8,-19.33,-27.61,-26.87,0,*55
1483617854.23,5505,7.25,71620.3,-19.33,-27.19,-26.49,0,*59
1483617855.49,5506,7.25,71620.5,-19.35,-27.19,-26.61,0,*56
1483617856.75,5507,7.25,71620.0,-19.35,-27.23,-26.61,0,*5E
1483617858.02,5508,7.25,71634.3,-19.37,-26.77,-26.17,0,*52
1483617859.27,5509,7.25,71630.0,-19.37,-26.93,-26.49,0,*52
1483617860.54,5510,7.25,71618.0,-19.37,-27.61,-26.93,0,*51
1483617861.75,5511,7.25,71616.8,-19.37,-27.03,-26.23,0,*5F
1483617863.02,5512,7.25,71624.0,-19.37,-26.77,-26.17,0,*59
1483617864.25,5513,7.25,71620.8,-19.37,-27.07,-26.39,0,*52
1483617865.54,5514,7.25,71608.3,-19.35,-26.93,-26.17,0,*57
1483617866.82,5515,7.25,71608.5,-19.37,-26.33,-25.75,0,*59
1483617868.08,5516,7.25,71606.8,-19.37,-26.55,-26.17,0,*5D
1483617869.3,5517,7.25,71620.0,-19.37,-26.61,-26.07,0,*5A
1483617870.57,5518,7.25,71620.3,-19.41,-26.77,-26.23,0,*55
1483617871.82,5519,7.25,71594.8,-19.37,-26.33,-25.87,0,*58
1483617873.05,5520,7.25,71608.0,-19.37,-26.03,-25.61,0,*59
1483617874.33,5521,7.25,71614.8,-19.37,-26.33,-25.71,0,*5A
1483617875.57,5522,7.25,71606.8,-19.37,-26.61,-26.17,0,*5D
1483617876.84,5523,7.25,71604.0,-19.37,-26.93,-26.33,0,*57
1483617878.06,5524,7.25,71610.5,-19.37,-26.49,-25.91,0,*5C
1483617879.28,5525,7.25,71610.0,-19.37,-26.61,-25.91,0,*57
1483617880.52,5526,7.25,71638.0,-19.41,-26.39,-25.91,0,*58
1483617881.76,5527,7.25,71622.5,-19.41,-26.45,-26.07,0,*5E
1483617883.04,5528,7.25,71632.0,-19.41,-26.61,-26.13,0,*52
1483617884.27,5529,7.25,71614.5,-19.37,-26.55,-25.91,0,*5C
1483617885.52,5530,7.25,71614.8,-19.37,-26.77,-26.07,0,*58
1483617886.76,5531,7.25,71604.0,-19.37,-26.71,-26.03,0,*5B
1483617888.01,5532,7.25,71600.3,-19.37,-27.07,-26.33,0,*5B
1483617889.23,5533,7.25,71602.0,-19.37,-27.07,-26.23,0,*5B
1483617890.45,5534,7.25,71598.5,-19.37,-27.71,-27.07,0,*5A
1483617891.72,5535,7.25,71600.8,-19.41,-27.45,-26.65,0,*58
1483617892.99,5536,7.25,71598.3,-19.41,-27.39,-26.65,0,*50
1483617894.2,5537,7.25,71596.5,-19.43,-27.13,-26.45,0,*59
1483617895.47,5538,7.25,71598.0,-19.41,-26.97,-26.23,0,*59
1483617896.75,5539,7.25,71608.0,-19.41,-26.81,-26.07,0,*59
1483617898.02,5540,7.25,71594.8,-19.41,-26.77,-25.91,0,*52
1483617899.32,5541,7.31,71602.3,-19.41,-26.81,-26.13,0,*53
1483617900.59,5542,7.25,71590.0,-19.41,-27.23,-26.61,0,*5C
1483617901.84,5543,7.25,71594.3,-19.43,-26.77,-26.23,0,*59
1483617903.14,5544,7.25,71598.3,-19.41,-26.97,-26.29,0,*58
1483617904.44,5545,7.25,71592.8,-19.41,-26.81,-26.13,0,*57
1483617905.72,5546,7.25,71596.0,-19.41,-26.65,-26.13,0,*5E
1483617907.02,5547,7.25,71592.3,-19.41,-26.93,-26.13,0,*56
1483617908.29,5548,7.25,71618.8,-19.41,-26.81,-26.23,0,*59
1483617909.53,5549,7.25,71600.0,-19.41,-26.61,-26.23,0,*56
1483617910.78,5550,7.25,71606.8,-19.43,-26.65,-26.13,0,*5B
1483617912.05,5551,7.25,71626.5,-19.41,-26.77,-26.23,0,*58
1483617913.36,5552,7.31,71626.8,-19.41,-26.97,-26.29,0,*5F
1483617914.61,5553,7.25,71606.5,-19.43,-26.81,-26.07,0,*57
1483617915.83,5554,7.25,71614.0,-19.43,-26.65,-26.07,0,*5A
1483617917.11,5555,7.25,71626.8,-19.41,-26.39,-25.75,0,*56
1483617918.33,5556,7.25,71626.3,-19.43,-26.23,-25.61,0,*59
1483617919.6,5557,7.25,71620.8,-19.41,-26.39,-25.81,0,*5F
1483617920.89,5558,7.25,71612.0,-19.41,-26.29,-25.81,0,*51
1483617922.11,5559,7.25,71628.3,-19.43,-26.39,-25.91,0,*52
1483617923.38,5560,7.25,71618.0,-19.41,-26.39,-25.97,0,*5C
1483617924.64,5561,7.25,71622.0,-19.41,-27.07,-26.39,0,*56
1483617925.9,5562,7.25,71624.8,-19.41,-26.55,-25.91,0,*52
1483617927.14,5563,7.25,71620.0,-19.43,-26.23,-25.75,0,*5A
1483617928.39,5564,7.25,71602.0,-19.43,-26.13,-25.65,0,*5F
1483617929.63,5565,7.25,71608.8,-19.43,-25.81,-25.39,0,*5F
1483617930.91,5566,7.25,71610.0,-19.43,-25.97,-25.75,0,*53
1483617932.21,5567,7.25,71602.8,-19.41,-26.29,-25.75,0,*56
1483617933.45,5568,7.31,71600.5,-19.41,-26.23,-25.65,0,*52
1483617934.73,5569,7.25,71596.3,-19.43,-26.29,-25.75,0,*5A
1483617936.0,5570,7.25,71592.0,-19.41,-26.07,-25.45,0,*5F
1483617937.25,5571,7.25,71588.0,-19.41,-26.07,-25.49,0,*52
1483617938.54,5572,7.25,71594.0,-19.41,-25.97,-25.45,0,*57
1483617939.82,5573,7.25,71598.8,-19.41,-26.29,-25.65,0,*52
1483617941.1,5574,7.25,71592.3,-19.41,-26.29,-25.49,0,*5B
1483617942.37,5575,7.25,71588.3,-19.41,-26.29,-25.61,0,*50
1483617943.62,5576,7.25,71580.0,-19.41,-26.23,-25.65,0,*5D
1483617944.86,5577,7.25,71594.5,-19.41,-25.91,-25.39,0,*5F
1483617946.11,5578,7.25,71600.8,-19.41,-26.23,-25.49,0,*5D
1483617947.38,5579,7.25,71590.0,-19.41,-26.23,-25.75,0,*53
1483617948.62,5580,7.25,71586.5,-19.41,-26.23,-25.49,0,*5A
1483617949.89,5581,7.25,71586.5,-19.41,-25.81,-25.39,0,*57
1483617951.13,5582,7.25,71596.0,-19.43,-25.91,-25.45,0,*5C
1483617952.4,5583,7.25,71596.3,-19.41,-26.23,-25.75,0,*56
1483617953.67,5584,7.25,71608.0,-19.41,-25.75,-25.39,0,*59
1483617954.92,5585,7.25,71600.3,-19.43,-26.23,-25.75,0,*52
1483617956.16,5586,7.25,71610.5,-19.43,-25.81,-25.39,0,*52
1483617957.4,5587,7.25,71624.8,-19.41,-25.39,-25.23,0,*59
1483617958.67,5588,7.25,71624.8,-19.41,-25.45,-25.23,0,*5D
1483617959.91,5589,7.25,71620.5,-19.43,-26.23,-25.75,0,*5E
1483617961.15,5590,7.25,71620.5,-19.43,-25.81,-25.39,0,*55
1483617962.4,5591,7.25,71636.5,-19.43,-25.65,-25.29,0,*5F
1483617963.64,5592,7.25,71634.0,-19.41,-25.49,-24.97,0,*54
1483617964.86,5593,7.25,71620.0,-19.43,-25.65,-25.39,0,*5C
1483617966.14,5594,7.25,71626.0,-19.41,-26.13,-25.65,0,*52
1483617967.38,5595,7.25,71626.8,-19.41,-25.91,-25.39,0,*53
1483617968.68,5596,7.25,71618.0,-19.41,-25.75,-25.29,0,*5B
1483617969.93,5597,7.25,71616.3,-19.43,-26.13,-25.49,0,*5D
1483617971.2,5598,7.25,71622.3,-19.41,-26.23,-25.75,0,*5C
1483617972.47,5599,7.25,71602.3,-19.41,-26.55,-26.07,0,*5A
1483617973.74,5600,7.25,71616.5,-19.41,-25.97,-25.49,0,*5D
1483617975.04,5601,7.25,71626.0,-19.41,-25.81,-25.29,0,*5D
1483617976.3,5602,7.25,71618.0,-19.41,-25.91,-25.45,0,*55
1483617977.52,5603,7.25,71620.8,-19.43,-25.65,-25.39,0,*56
1483617978.77,5604,7.25,71634.0,-19.41,-25.13,-24.77,0,*59
1483617980.01,5605,7.25,71632.8,-19.43,-25.65,-25.29,0,*51
1483617981.24,5606,7.25,71638.0,-19.43,-25.39,-25.09,0,*59
1483617982.48,5607,7.25,71638.8,-19.41,-25.49,-24.93,0,*5F
1483617983.72,5608,7.25,71636.3,-19.41,-25.65,-25.23,0,*54
1483617985.02,5609,7.25,71626.0,-19.41,-25.81,-25.29,0,*55
1483617986.31,5610,7.25,71628.5,-19.41,-25.97,-25.45,0,*50
1483617987.56,5611,7.25,71628.0,-19.41,-25.49,-25.13,0,*51
1483617988.8,5612,7.25,71620.0,-19.41,-25.65,-24.97,0,*51
1483617990.06,5613,7.25,71620.5,-19.41,-25.45,-24.93,0,*56
1483617991.33,5614,7.25,71626.0,-19.41,-25.45,-24.77,0,*5B
1483617992.57,5615,7.25,71622.8,-19.41,-25.61,-24.97,0,*52
1483617993.83,5616,7.25,71630.8,-19.41,-25.45,-24.93,0,*53
1483617995.07,5617,7.31,71624.3,-19.41,-25.39,-24.93,0,*59
1483617996.32,5618,7.25,71628.5,-19.41,-25.65,-25.13,0,*56
1483617997.56,5619,7.25,71628.3,-19.43,-25.29,-24.93,0,*54
1483617998.8,5620,7.25,71630.3,-19.41,-25.13,-24.61,0,*58
1483618000.07,5621,7.25,71620.5,-19.41,-25.45,-25.09,0,*55
1483618001.32,5622,7.25,71558.8,-19.41,-25.91,-25.49,0,*5B
1483618002.56,5623,7.31,71580.3,-19.41,-25.61,-25.23,0,*59
1483618003.82,5624,7.25,71598.5,-19.41,-25.29,-24.93,0,*58
1483618005.09,5625,7.25,71584.8,-19.41,-25.23,-24.83,0,*52
1483618006.33,5626,7.25,71596.5,-19.41,-25.13,-24.77,0,*59
1483618007.6,5627,7.25,71584.0,-19.41,-25.13,-24.83,0,*53
1483618008.85,5628,7.25,71592.8,-19.41,-24.97,-24.77,0,*5A
1483618010.09,5629,7.25,71596.8,-19.41,-24.97,-24.77,0,*5B
1483618011.36,5630,7.25,71578.0,-19.41,-25.29,-25.09,0,*5F
1483618012.63,5631,7.25,71596.0,-19.41,-25.49,-25.29,0,*5A
1483618013.9,5632,7.25,71592.8,-19.41,-25.45,-25.09,0,*57
1483618015.16,5633,7.25,71604.8,-19.41,-25.45,-25.13,0,*5D
1483618016.43,5634,7.25,71608.0,-19.41,-24.97,-24.67,0,*56
1483618017.63,5635,7.25,71606.8,-19.43,-24.93,-24.47,0,*53
1483618018.9,5636,7.25,71596.3,-19.41,-25.13,-24.83,0,*53
1483618020.14,5637,7.25,71612.3,-19.43,-25.09,-24.67,0,*51
1483618021.38,5638,7.25,71614.8,-19.41,-25.09,-24.61,0,*5A
1483618022.62,5639,7.25,71608.5,-19.41,-25.09,-24.61,0,*5B
1483618023.89,5640,7.25,71610.0,-19.43,-24.83,-24.41,0,*56
1483618025.16,5641,7.25,71620.5,-19.41,-24.67,-24.31,0,*58
1483618026.41,5642,7.25,71616.8,-19.41,-24.51,-24.31,0,*5E
1483618027.68,5643,7.25,71606.0,-19.41,-24.51,-24.15,0,*59
1483618028.93,5644,7.25,71604.3,-19.37,-24.47,-24.25,0,*5B
1483618030.17,5645,7.25,71610.5,-19.37,-24.61,-24.41,0,*5C
1483618031.44,5646,7.25,71618.8,-19.41,-24.83,-24.61,0,*50
1483618032.7,5647,7.25,71616.5,-19.41,-24.93,-24.67,0,*56
1483618033.96,5648,7.25,71620.3,-19.41,-24.97,-24.67,0,*5D
1483618035.24,5649,7.25,71616.0,-19.41,-24.83,-24.61,0,*5F
1483618036.48,5650,7.25,71616.0,-19.41,-24.97,-24.61,0,*52
1483618037.77,5651,7.25,71612.5,-19.41,-24.67,-24.41,0,*5E
1483618039.01,5652,7.25,71622.8,-19.37,-24.87,-24.57,0,*55
1483618040.25,5653,7.25,71622.5,-19.37,-24.61,-24.25,0,*59
1483618041.47,5654,7.25,71616.3,-19.37,-24.61,-24.35,0,*5F
1483618042.74,5655,7.25,71608.3,-19.37,-24.71,-24.41,0,*5C
1483618043.96,5656,7.25,71596.8,-19.37,-24.57,-24.35,0,*58
1483618045.17,5657,7.25,71572.8,-19.37,-24.77,-24.35,0,*5B
1483618046.38,5658,7.31,71610.3,-19.37,-25.19,-24.93,0,*51
1483618047.62,5659,7.25,71590.8,-19.37,-25.45,-25.09,0,*5B
1483618048.86,5660,7.31,71602.0,-19.37,-25.23,-25.03,0,*5B
1483618050.07,5661,7.25,71602.0,-19.37,-24.77,-24.57,0,*5A
1483618051.29,5662,7.25,71598.8,-19.37,-24.77,-24.47,0,*58
1483618052.5,5663,7.25,71588.8,-19.37,-25.23,-24.93,0,*50
1483618053.74,5664,7.25,71592.0,-19.37,-25.09,-24.71,0,*53
1483618054.98,5665,7.25,71590.5,-19.35,-25.19,-24.77,0,*57
1483618056.19,5666,7.25,71582.3,-19.37,-25.09,-24.47,0,*54
1483618057.43,5667,7.25,71590.0,-19.35,-24.93,-24.47,0,*55
1483618058.64,5668,7.25,71590.5,-19.37,-25.09,-24.47,0,*5A
1483618059.87,5669,7.25,71588.8,-19.37,-24.93,-24.41,0,*5F
1483618061.18,5670,7.25,71596.0,-19.35,-24.71,-24.25,0,*5B
1483618062.42,5671,7.25,71596.0,-19.37,-24.61,-24.25,0,*59
1483618063.69,5672,7.25,71594.5,-19.35,-24.87,-24.47,0,*54
1483618064.94,5673,7.25,71594.8,-19.35,-24.93,-24.41,0,*56
1483618066.21,5674,7.25,71598.8,-19.35,-25.03,-24.61,0,*5B
1483618067.48,5675,7.25,71592.0,-19.35,-24.77,-24.41,0,*5A
1483618068.75,5676,7.25,71592.8,-19.35,-25.03,-24.47,0,*5D
1483618070.01,5677,7.25,71604.3,-19.35,-24.87,-24.57,0,*50
1483618071.28,5678,7.25,71606.8,-19.35,-25.03,-24.61,0,*57
1483618072.55,5679,7.25,71602.5,-19.35,-25.09,-24.71,0,*5D
1483618073.75,5680,7.25,71594.3,-19.37,-24.93,-24.57,0,*5F
1483618075.0,5681,7.25,71596.0,-19.37,-24.77,-24.41,0,*53
1483618076.23,5682,7.25,71588.3,-19.37,-24.87,-24.57,0,*58
1483618077.5,5683,7.25,71588.0,-19.35,-24.93,-24.71,0,*5A
1483618078.76,5684,7.25,71598.5,-19.35,-24.87,-24.57,0,*5C
1483618079.98,5685,7.25,71590.5,-19.37,-24.77,-24.47,0,*51
1483618081.25,5686,7.25,71600.3,-19.37,-24.41,-24.25,0,*53
1483618082.52,5687,7.25,71604.0,-19.35,-24.87,-24.57,0,*5F
1483618083.72,5688,7.25,71588.3,-19.37,-24.93,-24.77,0,*55
1483618084.94,5689,7.25,71584.5,-19.37,-25.35,-25.09,0,*51
1483618086.18,5690,7.25,71588.8,-19.37,-25.23,-25.03,0,*54
1483618087.39,5691,7.25,71576.0,-19.37,-25.35,-24.93,0,*5A
1483618088.6,5692,7.25,71566.0,-19.37,-25.35,-24.77,0,*53
1483618089.81,5693,7.25,71570.0,-19.37,-25.19,-24.77,0,*5C
1483618091.03,5694,7.25,71576.0,-19.43,-25.23,-24.97,0,*5F
1483618092.29,5695,7.25,71572.3,-19.41,-25.29,-24.93,0,*52
1483618093.53,5696,7.25,71584.5,-19.41,-25.13,-24.93,0,*58
1483618094.77,5697,7.25,71600.3,-19.41,-25.23,-24.93,0,*5A
1483618095.98,5698,7.25,71604.5,-19.43,-25.23,-24.77,0,*5D
1483618097.22,5699,7.25,71610.5,-19.41,-25.23,-24.93,0,*54
1483618098.44,5700,7.25,71610.0,-19.43,-25.09,-24.77,0,*55
1483618099.67,5701,7.25,71602.8,-19.43,-25.09,-24.67,0,*55
1483618100.94,5702,7.25,71612.3,-19.41,-25.13,-24.67,0,*5F
1483618102.18,5703,7.25,71618.0,-19.41,-25.13,-24.77,0,*5F
1483618103.42,5704,7.25,71618.8,-19.41,-24.97,-24.31,0,*57
1483618104.72,5705,7.25,71608.5,-19.41,-24.83,-24.41,0,*54
1483618105.96,5706,7.25,71598.5,-19.41,-24.61,-24.31,0,*5C
1483618107.21,5707,7.25,71596.0,-19.43,-24.67,-24.31,0,*59
1483618108.45,5708,7.25,71586.3,-19.41,-24.61,-24.31,0,*52
1483618109.67,5709,7.25,71570.5,-19.43,-24.61,-24.31,0,*51